Simultaneous Nadir Overpasses (SNOs) Predictions

Prediction of SNOs between METOP-B and NOAA-19 Satellite Orbit:

Table of predicted SNOs for the next 14.0 days since TLE Epoch: 2/5/2022
Index Date (METOP-B) Time (METOP-B) Lat,Lon (METOP-B) SZA (METOP-B ) Date (NOAA-19) Time (NOAA-19) Lat,Lon (NOAA-19) SZA (NOAA-19 ) Distance(km) Time Diff (sec)
1 02/11/2022 11:55:49 80.77, 32.96 95.74 02/11/2022 11:54:38 80.77, 32.80 95.70 2.90 71
2 02/11/2022 12:46:31 -80.76,-159.92 84.31 02/11/2022 12:45:33 -80.77,-160.07 84.32 2.85 58
3 02/11/2022 13:37:11 80.77, 7.47 95.70 02/11/2022 13:36:38 80.77, 7.34 95.68 2.35 33
4 02/11/2022 14:27:52 -80.77, 174.94 84.30 02/11/2022 14:27:32 -80.76, 174.83 84.33 2.30 20
5 02/11/2022 15:18:33 80.76, -18.02 95.65 02/11/2022 15:18:38 80.77, -18.13 95.66 2.17 5
6 02/11/2022 16:09:14 -80.76, 149.45 84.35 02/11/2022 16:09:32 -80.76, 149.37 84.35 1.49 18
7 02/11/2022 16:59:53 80.77, -43.16 95.66 02/11/2022 17:00:36 80.76, -43.22 95.65 1.72 43



Historial Predications of SNOs between METOP-B and NOAA-19
